[Iaude] MPEC J56: 2024 JC1 [a=1.17,e=0.19,i=5.6,H=25.3]
    mpec at cfa.harvard.edu 
    mpec at cfa.harvard.edu
       
    Sat May  4 01:47:51 EDT 2024
    
    
  
M.P.E.C. 2024-J56                                   Issued 2024 May 4, 05:46 UT
     The Minor Planet Electronic Circulars contain information on unusual
         minor planets, routine data on comets and natural satellites,
         and occasional editorial announcements.  They are published
    on behalf of Division F of the International Astronomical Union by the
          Minor Planet Center, Smithsonian Astrophysical Observatory,
                          Cambridge, MA 02138, U.S.A.
			  
             Prepared using the Tamkin Foundation Computer Network
                              MPC at CFA.HARVARD.EDU
            URL https://www.minorplanetcenter.net/    ISSN 1523-6714
                                    2024 JC1                                    
Observations:
     K24J01C* C2024 05 02.31844212 24 24.944-28 06 54.96         21.47wXEJ056F51
     K24J01C  C2024 05 02.32947512 24 22.827-28 06 28.14         21.61wXEJ056F51
     K24J01C  C2024 05 02.34053212 24 20.712-28 06 01.42         21.86wXEJ056F51
     K24J01C  C2024 05 02.47183612 23 56.086-28 00 23.69         21.17GVEJ056F52
     K24J01C  C2024 05 02.47248712 23 55.946-28 00 21.69         21.58GVEJ056F52
     K24J01C KC2024 05 02.48592212 23 57.240-27 58 21.50         21.2 GVEJ056474
     K24J01C KC2024 05 02.49575212 23 55.486-27 57 58.43         21.5 GVEJ056474
     K24J01C KC2024 05 02.51647712 23 51.751-27 57 03.74         21.1 GVEJ056474
     K24J01C KC2024 05 02.52630712 23 50.004-27 56 38.11         21.7 GVEJ056474
     K24J01C KC2024 05 03.23080 12 22 06.24 -27 28 38.6                VEJ056291
     K24J01C KC2024 05 03.23521 12 22 05.45 -27 28 26.3          21.0 RVEJ056291
     K24J01C KC2024 05 03.23968 12 22 04.61 -27 28 13.9          21.2 RVEJ056291
     K24J01C KC2024 05 04.20376 12 19 39.26 -26 44 43.8                VEJ056291
     K24J01C KC2024 05 04.20911 12 19 38.22 -26 44 29.2          21.4 RVEJ056291
     K24J01C KC2024 05 04.21445 12 19 37.20 -26 44 14.1          21.7 RVEJ056291
Observer details:
291 LPL/Spacewatch II.  Observer T. H. Bressi.  1.8-m f/2.7 reflector + CCD.
474 Mount John Observatory, Lake Tekapo.  Observers A. C. Gilmore, P. M.
    Kilmartin.  Measurer P. M. Kilmartin.  0.6-m f/6.3 Reflector + CCD.
F51 Pan-STARRS 1, Haleakala.  Observers J. Herman, T. Lowe, P. Minguez, A.
    Schultz, I. Smith.  Measurers K. Chambers, T. de Boer, J. Fairlamb, H.
    Gao, M. Huber, C.-C. Lin, E. Magnier, Y. Ramanjooloo, R. Wainscoat, R.
    Weryk.  1.8-m Ritchey-Chretien + CCD.
F52 Pan-STARRS 2, Haleakala.  Observers J. Herman, T. Lowe, P. Minguez, A.
    Schultz, I. Smith.  Measurers K. Chambers, T. de Boer, J. Fairlamb, H.
    Gao, M. Huber, C.-C. Lin, E. Magnier, Y. Ramanjooloo, R. Wainscoat, R.
    Weryk.  1.8-m Ritchey-Chretien + CCD.
Orbital elements:
2024 JC1                                                 Earth MOID = 0.0078 AU
Epoch 2024 Mar. 31.0 TT = JDT 2460400.5                 MPC                     
M 278.62631              (2000.0)            P               Q                  
n   0.77410564     Peri.   56.55566     +0.44498295     +0.89153935             
a   1.1747241      Node   240.08745     -0.85061496     +0.39124751             
e   0.1880845      Incl.    5.59740     -0.28007921     +0.22821693             
P   1.27           H   25.38          G   0.15           U   8                  
Residuals in seconds of arc
240502 F51  0.1+  0.0     240502 474  0.2-  1.0+    240503 291  0.4+  0.2-
240502 F51  0.1+  0.1+    240502 474  0.0   1.0-    240503 291  0.5+  0.3+
240502 F51  0.2+  0.2-    240502 474  0.3-  0.2+    240504 291  0.0   0.3+
240502 F52  0.1+  0.1-    240502 474  0.3-  0.3+    240504 291  0.0   0.0
240502 F52  0.2-  0.2+    240503 291  0.3-  0.8-    240504 291  0.2+  0.0
Ephemeris:
2024 JC1                 a,e,i = 1.17, 0.19, 6                   q = 0.9538
Date    TT    R. A. (2000) Decl.     Delta      r    Elong.  Phase     V
2024 04 04    13 16 50.5 -34 20 22   0.1916  1.1711   150.8    24.6    23.3
...
2024 04 19    12 54 08.1 -33 37 49   0.1330  1.1257   154.3    22.7    22.3
...
2024 04 27    12 37 08.0 -31 04 29   0.1071  1.1015   151.1    26.2    21.9
...
2024 05 03    12 22 42.0 -27 37 14   0.08987 1.0836   145.8    31.5    21.7
2024 05 04    12 20 10.4 -26 52 47   0.08717 1.0807   144.7    32.6    21.6
2024 05 05    12 17 36.9 -26 05 04   0.08452 1.0777   143.5    33.8    21.6
...
2024 05 11    12 01 37.0 -19 58 38   0.06966 1.0604   135.0    42.3    21.4
...
2024 05 19    11 37 37.4 -06 54 09   0.05292 1.0384   119.1    58.4    21.2
...
2024 06 03    10 15 07.8 +40 34 01   0.03915 1.0018    70.3   107.6    22.4
A. U. Tomatic                (C) Copyright 2024 MPC           M.P.E.C. 2024-J56
    
    
More information about the Iaude
mailing list